| time (UTC) | temp C | wind direction | speed KPH | gust KPH | rain 1hr cm | rain 24hr cm | rain mn cm | humidity % | barometer mb |
| 20260906161206 | 17 | 226 | 3.2 | 8.0 | 0.00 | 0.00 | 0.00 | 42 | 1016.5 |
| 20260906160206 | 17 | 187 | 1.6 | 9.7 | 0.00 | 0.00 | 0.00 | 43 | 1016.5 |
| 20260906155206 | 17 | 0 | 0.0 | 4.8 | 0.00 | 0.00 | 0.00 | 42 | 1016.5 |
| 20260906154206 | 17 | 0 | 0.0 | 3.2 | 0.00 | 0.00 | 0.00 | 41 | 1016.5 |
| 20260906153206 | 17 | 0 | 0.0 | 4.8 | 0.00 | 0.00 | 0.00 | 41 | 1016.5 |
| 20260906152211 | 17 | 332 | 1.6 | 4.8 | 0.00 | 0.00 | 0.00 | 38 | 1016.5 |
| 20260906151206 | 18 | 0 | 0.0 | 3.2 | 0.00 | 0.00 | 0.00 | 37 | 1016.5 |
| 20260906150206 | 17 | 0 | 0.0 | 0.0 | 0.00 | 0.00 | 0.00 | 36 | 1016.5 |
| 20260906145209 | 17 | 0 | 0.0 | 3.2 | 0.00 | 0.00 | 0.00 | 36 | 1016.5 |
| 20260906144207 | 17 | 0 | 0.0 | 4.8 | 0.00 | 0.00 | 0.00 | 34 | 1016.5 |
| 20260906143206 | 16 | 0 | 0.0 | 4.8 | 0.00 | 0.00 | 0.00 | 35 | 1016.4 |
| 20260906142206 | 17 | 0 | 0.0 | 3.2 | 0.00 | 0.00 | 0.00 | 33 | 1016.4 |
| 20260906141206 | 17 | 0 | 0.0 | 3.2 | 0.00 | 0.00 | 0.00 | 32 | 1016.3 |
| 20260906140206 | 17 | 0 | 0.0 | 3.2 | 0.00 | 0.00 | 0.00 | 32 | 1016.2 |
| 20260906135206 | 16 | 0 | 0.0 | 0.0 | 0.00 | 0.00 | 0.00 | 31 | 1016.1 |
| 20260906134206 | 16 | 0 | 0.0 | 1.6 | 0.00 | 0.00 | 0.00 | 33 | 1016.1 |
| 20260906133206 | 16 | 0 | 0.0 | 3.2 | 0.00 | 0.00 | 0.00 | 35 | 1016.0 |
| 20260906132206 | 16 | 0 | 0.0 | 0.0 | 0.00 | 0.00 | 0.00 | 36 | 1015.9 |
| 20260906131206 | 15 | 0 | 0.0 | 0.0 | 0.00 | 0.00 | 0.00 | 37 | 1015.9 |
| 20260906130206 | 15 | 0 | 0.0 | 0.0 | 0.00 | 0.00 | 0.00 | 37 | 1015.8 |
| 20260906125205 | 15 | 0 | 0.0 | 4.8 | 0.00 | 0.00 | 0.00 | 37 | 1015.8 |
| 20260906124205 | 15 | 0 | 0.0 | 4.8 | 0.00 | 0.00 | 0.00 | 37 | 1015.7 |
| 20260906123205 | 16 | 0 | 0.0 | 4.8 | 0.00 | 0.00 | 0.00 | 36 | 1015.7 |
| 20260906122206 | 16 | 0 | 0.0 | 0.0 | 0.00 | 0.00 | 0.00 | 35 | 1015.7 |
| 20260906121206 | 16 | 0 | 0.0 | 4.8 | 0.00 | 0.00 | 0.00 | 35 | 1015.7 |
| 20260906120206 | 16 | 332 | 1.6 | 6.4 | 0.00 | 0.00 | 0.00 | 35 | 1015.5 |
| 20260906115207 | 16 | 332 | 1.6 | 3.2 | 0.00 | 0.00 | 0.00 | 34 | 1015.6 |
| 20260906114205 | 16 | 0 | 0.0 | 0.0 | 0.00 | 0.00 | 0.00 | 33 | 1015.7 |
| 20260906113205 | 16 | 0 | 0.0 | 4.8 | 0.00 | 0.00 | 0.00 | 33 | 1015.6 |
| 20260906112205 | 16 | 326 | 1.6 | 6.4 | 0.00 | 0.00 | 0.00 | 36 | 1015.6 |
| 20260906111207 | 16 | 341 | 1.6 | 4.8 | 0.00 | 0.00 | 0.00 | 35 | 1015.6 |
| 20260906105906 | 16 | 0 | 0.0 | 8.0 | 0.00 | 0.00 | 0.00 | 35 | 1015.6 |
| 20260906104906 | 16 | 334 | 3.2 | 8.0 | 0.00 | 0.00 | 0.00 | 34 | 1015.6 |
| 20260906103906 | 16 | 0 | 0.0 | 4.8 | 0.00 | 0.00 | 0.00 | 33 | 1015.6 |
| 20260906102906 | 16 | 1 | 1.6 | 4.8 | 0.00 | 0.00 | 0.00 | 30 | 1015.6 |
| 20260906101906 | 17 | 0 | 0.0 | 0.0 | 0.00 | 0.00 | 0.00 | 26 | 1015.6 |
| 20260906100906 | 17 | 0 | 0.0 | 0.0 | 0.00 | 0.00 | 0.00 | 27 | 1015.6 |
| 20260906095906 | 17 | 0 | 0.0 | 0.0 | 0.00 | 0.00 | 0.00 | 26 | 1015.6 |
| 20260906094906 | 17 | 0 | 0.0 | 0.0 | 0.00 | 0.00 | 0.00 | 26 | 1015.6 |
| 20260906093906 | 17 | 0 | 0.0 | 3.2 | 0.00 | 0.00 | 0.00 | 28 | 1015.6 |
| 20260906092906 | 17 | 304 | 1.6 | 4.8 | 0.00 | 0.00 | 0.00 | 26 | 1015.6 |
| 20260906091906 | 17 | 0 | 0.0 | 1.6 | 0.00 | 0.00 | 0.00 | 26 | 1015.7 |
| 20260906090906 | 17 | 0 | 0.0 | 3.2 | 0.00 | 0.00 | 0.00 | 27 | 1015.7 |
| 20260906085906 | 17 | 0 | 0.0 | 0.0 | 0.00 | 0.00 | 0.00 | 28 | 1015.8 |
| 20260906084906 | 17 | 0 | 0.0 | 4.8 | 0.00 | 0.00 | 0.00 | 30 | 1015.9 |
| 20260906083906 | 17 | 310 | 1.6 | 4.8 | 0.00 | 0.00 | 0.00 | 28 | 1015.9 |
| 20260906082906 | 16 | 0 | 0.0 | 4.8 | 0.00 | 0.00 | 0.00 | 30 | 1016.0 |
| 20260906081906 | 16 | 0 | 0.0 | 0.0 | 0.00 | 0.00 | 0.00 | 33 | 1016.0 |
| 20260906080906 | 16 | 0 | 0.0 | 0.0 | 0.00 | 0.00 | 0.00 | 33 | 1016.2 |
| 20260906075906 | 16 | 0 | 0.0 | 0.0 | 0.00 | 0.00 | 0.00 | 32 | 1016.3 |
| 20260906074906 | 16 | 0 | 0.0 | 3.2 | 0.00 | 0.00 | 0.00 | 33 | 1016.3 |
| 20260906073906 | 16 | 0 | 0.0 | 1.6 | 0.00 | 0.00 | 0.00 | 31 | 1016.5 |
| 20260906072906 | 16 | 0 | 0.0 | 4.8 | 0.00 | 0.00 | 0.00 | 33 | 1016.5 |
| 20260906071906 | 16 | 268 | 3.2 | 6.4 | 0.00 | 0.00 | 0.00 | 33 | 1016.5 |
| 20260906070906 | 16 | 0 | 0.0 | 4.8 | 0.00 | 0.00 | 0.00 | 32 | 1016.6 |
| 20260906065906 | 16 | 0 | 0.0 | 0.0 | 0.00 | 0.00 | 0.00 | 31 | 1016.6 |
| 20260906064906 | 16 | 0 | 0.0 | 3.2 | 0.00 | 0.00 | 0.00 | 36 | 1016.7 |
| 20260906063906 | 16 | 0 | 0.0 | 4.8 | 0.00 | 0.00 | 0.00 | 36 | 1016.7 |
| 20260906062906 | 16 | 359 | 1.6 | 4.8 | 0.00 | 0.00 | 0.00 | 37 | 1016.7 |
| 20260906061906 | 16 | 0 | 0.0 | 3.2 | 0.00 | 0.00 | 0.00 | 36 | 1016.7 |
| 20260906060906 | 16 | 359 | 1.6 | 4.8 | 0.00 | 0.00 | 0.00 | 35 | 1016.8 |
| 20260906055906 | 16 | 0 | 0.0 | 4.8 | 0.00 | 0.00 | 0.00 | 34 | 1016.6 |
| 20260906054906 | 16 | 359 | 3.2 | 6.4 | 0.00 | 0.00 | 0.00 | 34 | 1016.6 |
| 20260906053906 | 16 | 0 | 0.0 | 4.8 | 0.00 | 0.00 | 0.00 | 34 | 1016.7 |
| 20260906052906 | 16 | 0 | 0.0 | 0.0 | 0.00 | 0.00 | 0.00 | 33 | 1016.7 |
| 20260906051906 | 16 | 0 | 0.0 | 0.0 | 0.00 | 0.00 | 0.00 | 32 | 1016.7 |
| 20260906050906 | 17 | 0 | 0.0 | 0.0 | 0.00 | 0.00 | 0.00 | 31 | 1016.7 |
| 20260906045907 | 17 | 0 | 0.0 | 0.0 | 0.00 | 0.00 | 0.00 | 30 | 1016.7 |
| 20260906044906 | 17 | 0 | 0.0 | 0.0 | 0.00 | 0.00 | 0.00 | 29 | 1016.7 |
| 20260906043907 | 17 | 0 | 0.0 | 0.0 | 0.00 | 0.00 | 0.00 | 27 | 1016.7 |
| 20260906042906 | 17 | 0 | 0.0 | 3.2 | 0.00 | 0.00 | 0.00 | 28 | 1016.6 |
| 20260906041907 | 17 | 0 | 0.0 | 3.2 | 0.00 | 0.00 | 0.00 | 29 | 1016.7 |
| 20260906040906 | 17 | 0 | 0.0 | 0.0 | 0.00 | 0.00 | 0.00 | 30 | 1016.7 |
| 20260906035906 | 17 | 0 | 0.0 | 3.2 | 0.00 | 0.00 | 0.00 | 28 | 1016.7 |
| 20260906034907 | 16 | 0 | 0.0 | 3.2 | 0.00 | 0.00 | 0.00 | 28 | 1016.5 |
| 20260906033906 | 16 | 359 | 1.6 | 4.8 | 0.00 | 0.00 | 0.00 | 37 | 1016.5 |
| 20260906032906 | 15 | 359 | 3.2 | 6.4 | 0.00 | 0.00 | 0.00 | 43 | 1016.3 |
| 20260906031907 | 15 | 351 | 1.6 | 8.0 | 0.00 | 0.00 | 0.00 | 45 | 1016.2 |
| 20260906030906 | 15 | 318 | 1.6 | 14.5 | 0.00 | 0.00 | 0.00 | 50 | 1016.2 |
| 20260906025906 | 15 | 331 | 4.8 | 14.5 | 0.00 | 0.00 | 0.00 | 51 | 1016.1 |
| 20260906024907 | 15 | 338 | 9.7 | 17.7 | 0.00 | 0.00 | 0.00 | 51 | 1016.0 |
| 20260906023906 | 15 | 326 | 9.7 | 19.3 | 0.00 | 0.00 | 0.00 | 51 | 1016.0 |
| 20260906022907 | 15 | 318 | 6.4 | 16.1 | 0.00 | 0.00 | 0.00 | 51 | 1015.8 |
| 20260906021906 | 15 | 322 | 11.3 | 19.3 | 0.00 | 0.00 | 0.00 | 50 | 1015.8 |
| 20260906020906 | 15 | 318 | 14.5 | 22.5 | 0.00 | 0.00 | 0.00 | 50 | 1015.8 |
| 20260906015906 | 15 | 315 | 14.5 | 24.1 | 0.00 | 0.00 | 0.00 | 49 | 1015.7 |
| 20260906014908 | 16 | 315 | 16.1 | 25.7 | 0.00 | 0.00 | 0.00 | 49 | 1015.8 |
| 20260906013906 | 16 | 308 | 19.3 | 29.0 | 0.00 | 0.00 | 0.00 | 48 | 1015.8 |
| 20260906012906 | 16 | 304 | 17.7 | 32.2 | 0.00 | 0.00 | 0.00 | 47 | 1015.9 |
| 20260906011906 | 16 | 306 | 14.5 | 25.7 | 0.00 | 0.00 | 0.00 | 46 | 1015.9 |
| 20260906010906 | 17 | 308 | 16.1 | 30.6 | 0.00 | 0.00 | 0.00 | 45 | 1015.9 |
| 20260906005906 | 17 | 311 | 19.3 | 30.6 | 0.00 | 0.00 | 0.00 | 42 | 1016.0 |
| 20260906004929 | 17 | 298 | 16.1 | 29.0 | 0.00 | 0.00 | 0.00 | 41 | 1016.0 |
| 20260906004907 | 17 | 310 | 12.9 | 29.0 | 0.00 | 0.00 | 0.00 | 42 | 1016.0 |
| 20260906003906 | 17 | 298 | 16.1 | 29.0 | 0.00 | 0.00 | 0.00 | 41 | 1016.0 |
| 20260906002906 | 18 | 305 | 11.3 | 22.5 | 0.00 | 0.00 | 0.00 | 40 | 1016.0 |
| 20260906001907 | 18 | 312 | 12.9 | 22.5 | 0.00 | 0.00 | 0.00 | 38 | 1015.9 |
| 20260906000907 | 18 | 298 | 12.9 | 24.1 | 0.00 | 0.00 | 0.00 | 39 | 1015.9 |
| 20260905235908 | 18 | 319 | 9.7 | 30.6 | 0.00 | 0.00 | 0.00 | 38 | 1015.8 |
| 20260905234906 | 18 | 278 | 9.7 | 19.3 | 0.00 | 0.00 | 0.00 | 37 | 1015.9 |
| 20260905233906 | 18 | 278 | 11.3 | 25.7 | 0.00 | 0.00 | 0.00 | 39 | 1015.9 |
| 20260905232907 | 18 | 291 | 11.3 | 27.4 | 0.00 | 0.00 | 0.00 | 39 | 1015.8 |
| 20260905231906 | 18 | 332 | 11.3 | 25.7 | 0.00 | 0.00 | 0.00 | 37 | 1015.9 |
| 20260905230906 | 19 | 289 | 8.0 | 20.9 | 0.00 | 0.00 | 0.00 | 38 | 1015.9 |
| 20260905225906 | 19 | 302 | 9.7 | 16.1 | 0.00 | 0.00 | 0.00 | 39 | 1015.9 |
| 20260905224906 | 18 | 297 | 6.4 | 22.5 | 0.00 | 0.00 | 0.00 | 40 | 1016.0 |
| 20260905223906 | 18 | 295 | 1.6 | 22.5 | 0.00 | 0.00 | 0.00 | 37 | 1016.2 |
| 20260905222906 | 18 | 276 | 11.3 | 30.6 | 0.00 | 0.00 | 0.00 | 39 | 1016.2 |
| 20260905221906 | 18 | 260 | 9.7 | 25.7 | 0.00 | 0.00 | 0.00 | 39 | 1016.3 |
| 20260905220906 | 18 | 327 | 8.0 | 25.7 | 0.00 | 0.00 | 0.00 | 40 | 1016.3 |
| 20260905215907 | 18 | 262 | 9.7 | 27.4 | 0.00 | 0.00 | 0.00 | 39 | 1016.4 |
| 20260905214906 | 18 | 265 | 14.5 | 27.4 | 0.00 | 0.00 | 0.00 | 41 | 1016.5 |
| 20260905213906 | 18 | 285 | 14.5 | 29.0 | 0.00 | 0.00 | 0.00 | 41 | 1016.5 |
| 20260905212906 | 18 | 276 | 14.5 | 29.0 | 0.00 | 0.00 | 0.00 | 40 | 1016.7 |
| 20260905211908 | 18 | 284 | 14.5 | 27.4 | 0.00 | 0.00 | 0.00 | 41 | 1016.7 |
| 20260905210906 | 18 | 244 | 11.3 | 30.6 | 0.00 | 0.00 | 0.00 | 41 | 1016.8 |
| 20260905205907 | 18 | 268 | 12.9 | 29.0 | 0.00 | 0.00 | 0.00 | 43 | 1017.0 |
| 20260905204906 | 18 | 248 | 14.5 | 25.7 | 0.00 | 0.00 | 0.00 | 40 | 1017.0 |
| 20260905203906 | 18 | 271 | 11.3 | 22.5 | 0.00 | 0.00 | 0.00 | 40 | 1017.1 |
| 20260905202906 | 18 | 258 | 16.1 | 29.0 | 0.00 | 0.00 | 0.00 | 41 | 1017.2 |
| 20260905201909 | 18 | 284 | 16.1 | 30.6 | 0.00 | 0.00 | 0.00 | 41 | 1017.2 |
| 20260905200906 | 18 | 255 | 12.9 | 30.6 | 0.00 | 0.00 | 0.00 | 43 | 1017.4 |
| 20260905195906 | 18 | 265 | 16.1 | 24.1 | 0.00 | 0.00 | 0.00 | 41 | 1017.4 |
| 20260905194906 | 18 | 258 | 8.0 | 22.5 | 0.00 | 0.00 | 0.00 | 44 | 1017.5 |
| 20260905193906 | 18 | 258 | 11.3 | 20.9 | 0.00 | 0.00 | 0.00 | 38 | 1017.5 |
| 20260905192906 | 18 | 282 | 9.7 | 19.3 | 0.00 | 0.00 | 0.00 | 39 | 1017.6 |
| 20260905191907 | 18 | 263 | 4.8 | 12.9 | 0.00 | 0.00 | 0.00 | 42 | 1017.6 |
| 20260905190908 | 18 | 283 | 3.2 | 17.7 | 0.00 | 0.00 | 0.00 | 45 | 1017.7 |
| 20260905185906 | 18 | 294 | 8.0 | 19.3 | 0.00 | 0.00 | 0.00 | 44 | 1017.9 |
| 20260905184906 | 17 | 269 | 8.0 | 16.1 | 0.00 | 0.00 | 0.00 | 50 | 1017.9 |
| 20260905183906 | 17 | 287 | 6.4 | 14.5 | 0.00 | 0.00 | 0.00 | 48 | 1017.9 |
| 20260905182907 | 17 | 270 | 4.8 | 14.5 | 0.00 | 0.00 | 0.00 | 50 | 1018.0 |
| 20260905181906 | 16 | 231 | 8.0 | 16.1 | 0.00 | 0.00 | 0.00 | 51 | 1018.0 |
| 20260905180906 | 16 | 248 | 11.3 | 17.7 | 0.00 | 0.00 | 0.00 | 48 | 1018.0 |
| 20260905175906 | 17 | 250 | 8.0 | 16.1 | 0.00 | 0.00 | 0.00 | 46 | 1018.1 |
| 20260905174906 | 17 | 214 | 6.4 | 16.1 | 0.00 | 0.00 | 0.00 | 48 | 1018.0 |
| 20260905173906 | 16 | 252 | 6.4 | 16.1 | 0.00 | 0.00 | 0.00 | 48 | 1018.1 |
| 20260905172906 | 16 | 245 | 6.4 | 14.5 | 0.00 | 0.00 | 0.00 | 46 | 1018.1 |
| 20260905171906 | 16 | 266 | 3.2 | 12.9 | 0.00 | 0.00 | 0.00 | 49 | 1018.0 |
| 20260905170906 | 16 | 234 | 4.8 | 12.9 | 0.00 | 0.00 | 0.00 | 48 | 1018.0 |
| 20260905165906 | 16 | 254 | 6.4 | 12.9 | 0.00 | 0.00 | 0.00 | 48 | 1017.9 |
| 20260905164906 | 16 | 255 | 1.6 | 8.0 | 0.00 | 0.00 | 0.00 | 48 | 1017.9 |
| 20260905163906 | 16 | 0 | 0.0 | 12.9 | 0.00 | 0.00 | 0.00 | 47 | 1017.8 |
| 20260905162906 | 16 | 0 | 0.0 | 6.4 | 0.00 | 0.00 | 0.00 | 49 | 1017.7 |
| 20260905161906 | 16 | 0 | 0.0 | 6.4 | 0.00 | 0.00 | 0.00 | 50 | 1017.7 |